Regional Weather Roundup
Issued by NWS

Home | Current Version | Previous Version | Graphics & Text | Print | Product List | Glossary On
Versions: 1 2 3 4 5 6 7 8 9 10 11 12 13 14 15 16 17 18 19 20 21 22 23 24 25 26 27 28 29 30 31 32 33 34 35 36 37 38 39 40 41 42 43 44 45 46 47 48 49 50
000
ASUS45 KTFX 221304
RWRMT
MONTANA HOURLY WEATHER ROUNDUP
NATIONAL WEATHER SERVICE GREAT FALLS MT
604 AM MST MON DEC 22 2014

NOTE: "FAIR" INDICATES FEW OR NO CLOUDS BELOW 12000 FEET WITH NO
SIGNIFICANT WEATHER AND/OR OBSTRUCTIONS TO VISIBILITY.

* THESE STATIONS ARE NOT UNDER NWS QUALITY CONTROL. THEY DO NOT
   REPORT WEATHER SUCH AS PRECIPITATION OR FOG.

MTZ001>007-043-221400-
WEST OF THE DIVIDE
CITY           SKY/WX    TMP DP  RH WIND       PRES   REMARKS
KALISPELL      CLOUDY    28  28 100 NE5       29.88R WCI  22
MISSOULA       CLOUDY    34  30  85 W3        29.95R
BUTTE          CLOUDY    30  21  69 W12G20    29.86S WCI  20
MULLAN PASS    FOG       25  25 100 VRB6      29.89S VSB 1/2  WCI  18
* ESSEX        N/A       32  30  92 VRB1       N/A
* LINCOLN      N/A       31  24  75 W5G14      N/A   WCI  26
* LOOKOUT PASS N/A       31  28  89 NE6G11     N/A   WCI  25
* POLSON       N/A       34  25  70 SE1G10     N/A
* RONAN APT    MOCLDY    37  28  70 N/A        N/A
* SEELEY LAKE  N/A       33  27  79 NW3G11     N/A
* THOMP F APT  PTCLDY    27  24  88 NE2G9      N/A
$$

MTZ008-052>055-221400-
SOUTHWEST MONTANA
CITY           SKY/WX    TMP DP  RH WIND       PRES   REMARKS
BOZEMAN        MOCLDY    30  27  89 VRB5      29.86R WCI  25
DILLON         CLOUDY    30  18  61 NW7       29.88R WCI  23
* W YELLOWSTON CLOUDY    26  22  85 SW4G9      N/A
* THREE FORKS  MOCLDY    36  36 100 SW13G20    N/A   WCI  27
* BOULDER HILL N/A       29  12  49 N4         N/A
* MONIDA PASS  N/A       27  22  81 NW13G18    N/A   WCI  16
* RAYNOLDS PAS N/A       27  20  75 W3         N/A
* WHITEHALL    N/A       32  29  89 SW7G15     N/A   WCI  25
* WISE RIVER   N/A       28  16  61 NW10G15    N/A   WCI  19
$$

MTZ009>010-012-014-046-048-049-054-221400-
EAST SLOPES AND CENTRAL MONTANA
CITY           SKY/WX    TMP DP  RH WIND       PRES   REMARKS
CUT BANK       PTCLDY    28  19  69 W10       29.74R WCI  19
GREAT FALLS    CLOUDY    34  27  76 NW10      29.77R WCI  26
HELENA         PTCLDY    37  23  57 W29G38    29.80F WCI  25
MALMSTROM AFB  CLOUDY    36  28  73 W17       29.79R WCI  26
* DEARBORN     N/A       30  25  82 N/A        N/A
* EAST GLACIER N/A       31  22  69 NE11G17    N/A   WCI  22
* MONARCH      N/A       30  20  66 W16G24     N/A   WCI  19
* PENDROY      N/A       29  20  69 W12        N/A   WCI  19
* ROGERS PASS  N/A       29  22  75 E4G14      N/A
* SWEET GRASS  N/A       30  18  61 W16        N/A   WCI  19
$$

MTZ011-013-016-021-035-040-045-047-050-051-221400-
NORTH CENTRAL MONTANA
CITY           SKY/WX    TMP DP  RH WIND       PRES   REMARKS
HAVRE          MOCLDY    30  25  82 SW9       29.73R WCI  22
LEWISTOWN      CLOUDY    34  25  70 NW12      29.73R WCI  25
* N BAR RANCH  PTCLDY    30  23  75 NW12G20   29.71R WCI  20
* CHESTER      N/A       29  20  69 N2         N/A
* DENTON       N/A       34  23  64 W9         N/A   WCI  27
* GEYSER       N/A       33  24  70 W13        N/A   WCI  24
* JUDITH GAP   N/A       30  19  64 NW11G16    N/A   WCI  21
* LOMA         N/A       28  21  75 SW8        N/A   WCI  20
$$

MTZ017>020-022>027-061-062-221400-
NORTHEAST MONTANA
CITY           SKY/WX    TMP DP  RH WIND       PRES   REMARKS
GLASGOW        CLOUDY    32  27  82 NW22      29.61R WCI  19
GLENDIVE       CLOUDY    32  27  82 NW22G28   29.56R WCI  19
JORDAN         PTCLDY    34  27  76 NW12      29.63R WCI  25
SIDNEY         CLOUDY    27  25  92 W16G23    29.56R VSB 1 1/4 WCI  15
WOLF POINT     LGT SNOW  30  25  82 NW17      29.60R VSB 1 3/4 WCI  18
* BEAVER HILL  N/A       31  29  92 W24G30     N/A   WCI  18
* CIRCLE       N/A       33  29  85 W15G20     N/A   WCI  23
* LINDSAY DVD  N/A       30  28  92 W28G37     N/A   WCI  15
* SACO         N/A       33  28  82 W15G20     N/A   WCI  23
$$

MTZ028>042-056>058-221400-
SOUTHCENTRAL AND SOUTHEAST MONTANA
CITY           SKY/WX    TMP DP  RH WIND       PRES   REMARKS
BAKER          CLOUDY    34 N/A N/A NW25G35   29.53S WCI  21
BILLINGS       PTCLDY    34  27  76 W14       29.74R WCI  24
LIVINGSTON     CLOUDY    34  27  76 SW16      29.79R WCI  24
MILES CITY     MOCLDY    36  27  70 NW18      29.61R WCI  26
* LAUREL APT   MOCLDY    36  19  50 W13        N/A   WCI  27
* ROUNDUP APT  CLEAR     36  19  50 W11G16     N/A   WCI  28
* ALZADA       N/A       35  27  73 W13G20     N/A   WCI  26
* HYSHAM       N/A       31  19  61 W4         N/A
* LAME DEER    N/A       33  22  64 W14G19     N/A   WCI  23
* REED POINT   N/A       36  31  82 W14G19     N/A   WCI  27
* ROSCOE HILL  N/A       31  20  64 W9G21      N/A   WCI  23
$$

REGIONAL REPORTS...DAKOTAS
CITY           SKY/WX    TMP DP  RH WIND       PRES   REMARKS
WILLISTON      CLOUDY    28  25  89 NW16      29.51R WCI  16
DICKINSON      LGT SNOW  30  27  89 NW17      29.45R VSB 2 1/2 WCI  18
BEACH          N/A       32  32 100 NW18G28   29.52R WCI  21
CROSBY         FOG       28  28 100 N9        29.50R VSB M1/4 WCI  19
WATFORD CITY   LGT SNOW  27  27 100 W13G21    29.48R VSB 3    WCI  16
BISMARCK       FOG       28  28 100 CALM      29.46R VSB 1/2
GRAND FORKS    FOG       34  34 100 E8        29.53R WCI  27
FARGO          FOG       37  36  96 SE12      29.49S VSB 2 1/2 WCI  29
BUFFALO SD     MOCLDY    36  28  73 NW25G35   29.45R WCI  24
RAPID CITY     MOCLDY    43  21  42 NW36G45   29.53R
$$

REGIONAL REPORTS...WYOMING/IDAHO/WASHINGTON
CITY           SKY/WX    TMP DP  RH WIND       PRES   REMARKS
GILLETTE       CLOUDY    32  21  64 NW15      29.66S WCI  22
SHERIDAN       CLOUDY    36  21  54 NW13      29.70R WCI  27
CODY           CLOUDY    32  25  75 W6        29.74S WCI  26
YELLOWSTONE LA CLOUDY    21  18  88 W8        29.79S WCI  11
SALMON         MOCLDY    30  28  92 CALM      29.95F
MULLAN PASS    FOG       25  25 100 VRB6      29.89S VSB 1/2  WCI  18
SAND POINT     CLEAR     34  34 100 SW8       29.97S WCI  27
SPOKANE        CLEAR     36  28  73 S9        30.01R WCI  29
$$

REGIONAL REPORTS...SASKATCHEWAN
CITY           SKY/WX    TMP DP  RH WIND       PRES   REMARKS
REGINA         FOG       23  23 100 NW10      29.56R VSB 3/4  WCI  13

$$




USA.gov is the U.S. government's official web portal to all federal, state and local government web resources and services.